Location: Bonac
(42.8765°N, 0.9753°E)
Time: 20:56:00
(UTC+00:00)

Daily predictions for brighter satellites

Satellite Brightness Start Highest point End
(mag) Time Altitude Azimuth Time Altitude Azimuth Time Altitude Azimuth
Cosmos 2074 Rocket 4.4 17:07:26 10° NNW 17:13:41 72° W 17:19:51 10° S
Cosmos 1500 Rocket 4.4 17:13:02 10° NNW 17:17:23 58° W 17:21:43 10° S
Cosmos 304 Rocket 3.8 17:13:01 10° NNW 17:17:44 58° ENE 17:22:23 10° SSE
Cosmos 1953 3.6 17:16:37 10° NNE 17:19:10 18° ENE 17:21:44 10° ESE
Cosmos 676 Rocket 4.4 17:16:56 10° N 17:21:49 40° ENE 17:26:41 10° SE
BREEZE M DEB (TANK) 2.2 17:22:55 10° NW 17:24:57 46° NNE 17:28:15 10° ESE
SL-16 R/B 3.3 17:19:22 10° N 17:25:21 54° WNW 17:31:18 10° SW
YAOGAN 1 3.7 17:26:33 10° ESE 17:29:50 22° ENE 17:33:09 10° NNE
Cosmos 2369 Rocket 2.2 17:24:35 10° NNW 17:30:20 83° ENE 17:36:00 10° SSE
Cosmos 1484 Rocket 4.5 17:27:20 10° SSW 17:30:23 32° W 17:33:26 10° NNW
Cosmos 1943 3.3 17:29:21 10° S 17:34:53 62° ESE 17:40:28 10° NNE
Cosmos 2297 3.7 17:30:38 10° NNW 17:36:18 87° ENE 17:41:59 10° SSE
Landsat 7 3.9 17:31:43 10° S 17:36:21 82° WSW 17:41:03 10° NNW
NOSS 3-4 (A) 3.9 17:32:27 10° S 17:37:04 33° ESE 17:41:27 12° NE
NOSS 3-4 (C) 3.9 17:32:35 10° S 17:37:13 33° ESE 17:41:36 12° NE
NOSS 3-2 (C) 4.2 17:30:19 10° NW 17:37:52 86° NE 17:46:54 10° SE
Cosmos 1758 4.2 17:35:08 10° NNW 17:38:40 48° W 17:42:10 10° SSW
Cosmos 1241 Rocket 4.5 17:35:35 10° NNW 17:41:48 89° WSW 17:48:02 10° SSE
SMAP 3.7 17:37:43 10° S 17:42:18 60° W 17:46:55 10° NNW
Cosmos 2263 4.1 17:36:44 10° NNW 17:42:28 79° ENE 17:48:06 10° SSE
SJ 16-02 1.3 17:38:41 10° NNW 17:42:59 89° W 17:47:16 10° SSE
USA 276 3.7 17:42:23 10° SSE 17:43:41 13° SE 17:44:20 13° ESE
Cosmos 1470 Rocket 3.8 17:42:30 10° N 17:46:38 43° ENE 17:50:45 10° SSE
Meteor 1-23 Rocket 4.4 17:44:23 10° SSE 17:49:52 51° E 17:55:18 10° NNE
Spot 4 Rocket 4.5 17:46:40 10° SE 17:51:21 37° ENE 17:56:03 10° N
Cosmos 2251 Rocket 4.2 17:47:42 10° NNW 17:52:53 59° WSW 17:57:59 10° S
SL-16 R/B 3.6 17:47:58 10° SW 17:53:11 37° WNW 17:58:25 10° N
Cosmos 2218 Rocket 4.1 17:47:15 10° N 17:53:37 61° E 17:59:54 10° SSE
Cosmos 2366 rocket 4.0 17:47:19 10° N 17:53:39 65° E 17:59:57 10° SSE
PSLV R/B 4.3 17:50:39 10° SE 17:54:11 28° ENE 17:57:45 10° N
Cosmos 1703 3.1 17:51:49 10° SSE 17:54:59 44° E 17:57:38 14° NNE
Meteor 1-21 4.3 17:53:05 10° S 17:58:32 54° E 18:03:59 10° NNE
NOSS 2-3 (E) 4.3 17:54:28 10° NNW 17:59:47 72° NE 18:07:00 10° SE
SJ-12 4.3 17:56:03 10° S 17:59:47 59° W 18:03:35 10° NNW
OPS 8737 4.2 18:01:00 10° NNW 18:04:00 52° NE 18:05:46 22° ESE
Cosmos 2341 Rocket 4.0 17:58:12 10° N 18:04:35 85° E 18:10:51 10° S
BREEZE-M DEB (TANK) 2.3 18:02:50 10° SW 18:05:07 68° SE 18:06:55 27° ENE
DNEPR-1 R/B 4.1 18:05:46 10° S 18:10:02 39° ESE 18:11:37 28° ENE
Meteor 1-15 Rocket 4.4 18:04:27 10° N 18:10:25 87° W 18:16:17 10° S
Cosmos 2056 Rocket 4.2 18:05:28 10° SW 18:10:29 52° WNW 18:15:30 10° N
NOAA 15 4.5 18:06:01 10° SSE 18:11:12 68° ENE 18:16:24 10° N
ATLAS 5 CENTAUR R/B 1.7 18:08:26 10° WSW 18:11:14 39° NW 18:13:00 19° NNE
BREEZE-M DEB (TANK) 3.1 18:09:57 10° NW 18:11:59 26° N 18:11:59 26° N
ARIANE 5 R/B 3.6 18:08:02 10° S 18:13:05 48° W 18:18:08 10° NNW
Meteor 1-16 Rocket 4.1 18:09:06 10° N 18:14:21 58° ENE 18:19:37 10° SSE
USA 215 3.2 18:10:46 19° NE 18:15:41 77° SE 18:22:13 10° SW
CZ-4 R/B 4.5 18:12:34 10° S 18:16:30 74° WSW 18:20:28 10° NNW
Nadezhda 3 Rocket 4.3 18:14:37 10° SSE 18:20:18 41° E 18:26:00 10° NNE
SJ-7 4.1 18:18:35 10° SSE 18:22:20 65° ENE 18:26:06 10° N
Cosmos 1633 Rocket 4.2 18:20:00 10° NNW 18:24:06 44° W 18:28:10 10° SSW
Cosmos 1959 Rocket 4.5 18:18:31 10° N 18:24:39 85° W 18:30:48 10° S
ISS -3.6 18:21:56 10° SW 18:25:11 53° SE 18:25:24 52° SE
Resurs 1-3 3.5 18:22:04 10° SSE 18:26:22 89° ENE 18:30:42 10° NNW
Meteor 2-13 Rocket 4.3 18:21:22 10° S 18:27:29 74° E 18:33:39 10° NNE
Cosmos 292 Rocket 4.2 18:28:20 10° N 18:32:18 38° NE 18:32:18 38° NE
BREEZE-M DEB (TANK) 2.9 18:30:31 10° WSW 18:33:25 70° NNW 18:36:26 30° ENE
CARTOSAT-1 3.4 18:29:46 10° SSE 18:33:54 59° ENE 18:38:03 10° N
Cosmos 1656 4.2 18:31:48 10° N 18:36:54 36° NE 18:36:54 36° NE
CZ-2D R/B 3.8 18:37:53 10° S 18:41:42 58° W 18:45:29 10° NNW
DMSP B5D1-3 4.4 18:40:06 31° NNE 18:42:29 64° E 18:47:29 10° S
SL-4 R/B 3.2 18:41:51 10° WNW 18:45:29 37° SW 18:47:15 23° S
USA 267 3.3 18:46:12 39° E 18:48:31 57° NNE 18:54:54 10° NW
USA 238 DEB 3.9 18:41:01 10° NW 18:48:32 82° NE 18:56:31 11° SE
USA 238 3.9 18:41:07 10° NW 18:48:39 81° NE 18:56:25 12° SE
COSMO-SKYMED 1 3.1 18:45:34 16° N 18:48:42 55° WNW 18:52:42 10° SSW
YAOGAN 3 4.3 18:45:18 10° SSE 18:49:30 80° ENE 18:53:44 10° N
Cosmos 1741 Rocket 3.8 18:45:03 10° NNW 18:50:18 85° ENE 18:55:29 10° SSE
Cosmos 968 Rocket 3.8 18:45:35 10° NNW 18:50:42 65° WSW 18:55:44 10° S
BREEZE-M DEB (TANK) 3.9 18:46:59 10° WNW 18:50:56 35° N 18:50:58 35° N
Resurs 01 Rocket 2.0 18:53:13 48° N 18:53:13 48° N 18:56:28 10° N
Cosmos 1603 4.0 18:46:56 10° SSW 18:52:33 67° WNW 18:56:03 24° NNE
Cosmos 1331 Rocket 4.4 18:49:08 10° SSW 18:54:11 60° WNW 18:57:24 22° N
Cosmos 1953 4.1 18:51:03 10° NNW 18:54:16 29° W 18:57:29 10° SSW
Cosmos 1850 Rocket 4.1 18:54:10 10° NNW 18:59:28 76° WSW 19:04:45 10° SSE
Okean 2 3.9 18:57:39 10° SSW 19:01:25 52° W 19:02:03 46° NW
Cosmos 1302 Rocket 3.9 18:56:51 10° S 19:01:58 69° ESE 19:01:58 69° ESE
Cosmos 332 Rocket 4.5 18:59:12 10° NNW 19:03:50 52° WSW 19:08:28 10° S
NOAA 6 4.3 18:59:10 10° S 19:04:13 64° WSW 19:09:18 10° NNW
RESURS DK-1 3.5 19:00:18 10° SSW 19:02:34 33° SSW 19:02:34 33° SSW
YAOGAN 1 4.2 19:01:38 10° SSW 19:05:29 33° W 19:09:22 10° NNW
Cosmos 1833 Rocket 4.4 19:03:33 10° S 19:05:14 19° SSE 19:05:14 19° SSE
SL-08 R/B 4.4 19:08:40 10° N 19:15:09 86° E 19:21:37 10° S
Cosmos 1452 Rocket 4.2 19:11:09 10° SW 19:16:14 51° WNW 19:18:18 33° N
Cosmos 1339 Rocket 4.4 19:16:52 10° S 19:23:06 86° W 19:25:09 45° N
NOSS 3-4 (A) 4.2 19:22:45 10° WSW 19:27:42 39° NW 19:28:55 35° NNW
NOSS 3-4 (C) 4.2 19:22:51 10° WSW 19:27:50 40° NW 19:29:03 35° NNW
USA 215 4.1 19:58:06 41° NNW 19:58:23 41° NNW 20:04:25 10° W
USA 267 4.4 20:33:34 37° W 20:33:34 37° W 20:37:52 10° WNW
